Probability
0 0 0 0 0 0 0 0 0 0 0 0 0 1 1 1 0 0 0 0 0 0 0 0 0 0 0 0 0 0 0 0 0 0 0 0 0 0 0 0 0 0 0 0
0 0 0 0 0 0 0 0 0 0 0 0 1 2 3 2 0 0 0 0 0 0 0 0 0 0 0 0 0 0 0 0 0 0 0 0 0 0 0 0 0 0 0 0
0 0 0 0 0 0 0 0 0 0 0 1 2 3 3 2 0 0 0 0 0 0 0 0 0 0 0 0 0 0 0 0 0 0 0 0 0 0 0 0 0 0 0 0
0 0 0 0 0 0 0 0 0 0 0 1 2 3 3 2 0 0 0 0 0 0 0 0 0 0 0 0 0 0 0 0 0 0 0 0 0 0 0 0 0 0 0 0
0 0 0 0 0 0 0 0 0 0 0 0 1 2 2 1 0 0 0 0 0 0 0 0 0 0 0 0 0 0 0 0 0 0 0 0 0 0 0 0 0 0 0 0
0 0 0 0 0 0 0 0 0 0 0 0 0 1 1 0 0 0 0 0 0 0 0 0 0 0 0 0 0 0 0 0 0 0 0 0 0 0 0 0 0 0 0 0
0 0 0 0 0 0 0 0 0 0 0 0 0 1 1 0 0 0 0 0 0 0 0 0 0 0 0 0 0 0 0 0 0 0 0 0 0 0 0 0 0 0 0 0
0 0 0 0 0 0 0 0 0 0 0 1 1 2 1 0 0 0 0 0 0 0 0 0 0 0 0 0 0 0 0 0 0 0 0 0 0 0 0 0 0 0 0 0
0 0 0 0 0 0 0 0 0 0 1 2 2 2 1 0 0 0 0 0 0 0 0 0 0 0 0 0 0 0 0 0 0 0 0 0 0 0 0 0 0 0 0 0
0 0 0 0 0 0 0 0 0 0 1 2 1 1 0 0 0 0 0 0 0 0 0 0 0 0 0 0 0 0 0 0 0 0 0 0 0 0 0 0 0 0 0 0
0 0 0 0 0 0 0 0 0 0 1 2 1 0 0 0 0 0 0 0 0 0 0 0 0 0 0 0 0 0 0 0 0 0 0 0 0 0 0 0 0 0 0 0
0 0 0 0 0 0 0 0 0 0 1 1 0 0 0 0 0 0 0 0 0 0 0 0 0 0 0 0 0 0 0 0 0 0 0 0 0 0 0 0 0 0 0 0
0 0 0 0 0 0 0 0 0 0 0 0 0 0 0 0 0 0 0 0 0 0 0 0 0 0 0 0 0 0 0 0 0 0 0 0 0 0 0 0 0 0 0 0
0 0 0 0 0 0 0 0 0 0 0 0 0 0 0 0 0 0 0 0 0 0 0 0 0 0 0 0 0 0 0 0 0 0 0 0 0 0 0 0 0 0 0 0
0 0 0 0 0 0 0 0 0 0 0 0 0 0 0 0 0 0 0 0 0 0 0 0 0 0 0 0 0 0 0 0 0 0 0 0 0 0 0 0 0 0 0 0
0 0 0 0 0 0 0 0 0 0 0 0 0 0 0 0 0 0 0 0 0 0 0 0 0 0 0 0 0 0 0 0 0 0 0 0 0 0 0 0 0 0 0 0
0 0 0 0 0 0 0 0 0 0 0 0 0 0 0 0 0 0 0 0 0 0 0 0 0 0 0 0 0 0 0 0 0 0 0 0 0 0 0 0 0 0 0 0
0 0 0 0 0 0 0 0 0 0 0 0 0 0 0 0 0 0 0 0 0 0 0 0 0 0 0 0 0 0 0 0 0 0 0 0 0 0 0 0 0 0 0 0
0 0 0 0 0 0 0 0 0 0 0 0 0 0 0 0 0 0 0 0 0 0 0 0 0 0 0 0 0 0 0 0 0 0 0 0 0 0 0 0 0 0 0 0
0 0 0 0 0 0 0 0 0 0 0 0 0 0 0 0 0 0 0 0 0 0 0 0 0 0 0 0 0 0 0 0 0 0 0 0 0 0 0 0 0 0 0 0
0 0 0 0 0 0 0 0 0 0 0 0 0 0 0 0 0 0 0 0 0 0 0 0 0 0 0 0 0 0 0 0 0 0 0 0 0 0 0 0 0 0 0 0
0 0 0 0 0 0 0 0 0 0 0 0 0 0 0 0 0 0 0 0 0 0 0 0 0 0 0 0 0 0 0 0 0 0 0 0 0 0 0 0 0 0 0 0
0 0 0 0 0 0 0 0 0 0 0 0 0 0 0 0 0 0 0 0 0 0 0 0 0 0 0 0 0 0 0 0 0 0 0 0 0 0 0 0 0 0 0 0
0 0 0 0 0 0 0 0 0 0 0 0 0 0 0 0 0 0 0 0 0 0 0 0 0 0 0 0 0 0 0 0 0 0 0 0 0 0 0 0 0 0 0 0
0 0 0 0 0 0 0 0 0 0 0 0 0 0 0 0 0 0 0 0 0 0 0 0 0 0 0 0 0 0 0 0 0 0 0 0 0 0 0 0 0 0 0 0
0 0 0 0 0 0 0 0 0 0 0 0 0 0 0 0 0 0 0 0 0 0 0 0 0 0 0 0 0 0 0 0 0 0 0 0 0 0 0 0 0 0 0 0
0 0 0 0 0 0 0 0 0 0 0 0 0 0 0 0 0 0 0 0 0 0 0 0 0 0 0 0 0 0 0 0 0 0 0 0 0 0 0 0 0 0 0 0
Wind_Speed
2 2 1 2 5 3 1 4 5 4 5 7 8 10 11 12 13 13 11 11 10 8 7 6 5 4 4 3 3 3 4 4 4 4 4 5 5 6 6 6 7 7 7 8
3 2 3 5 6 4 2 3 5 5 2 3 7 8 9 11 13 12 11 11 10 9 8 7 6 4 3 3 3 3 4 3 3 4 4 5 5 5 6 6 6 7 8 7
3 4 3 3 4 3 4 3 3 4 4 7 9 10 10 11 11 11 11 11 10 9 8 7 6 5 4 3 3 3 3 3 4 4 4 4 5 6 6 5 6 7 7 7
1 4 1 1 2 6 7 6 5 6 7 8 8 7 5 7 9 10 10 10 9 8 7 5 4 4 3 3 3 3 4 4 4 4 5 5 5 5 5 4 5 5 6 6
2 1 1 2 3 2 3 2 3 7 8 7 9 7 4 3 7 8 9 9 8 8 7 6 5 5 4 3 3 4 4 4 4 4 5 5 5 4 3 4 5 4 4 6
2 1 1 3 5 1 5 2 1 6 8 9 7 5 4 5 7 9 9 8 8 7 7 6 5 5 5 4 4 4 4 4 4 4 4 4 4 3 3 3 4 4 5 5
2 1 1 4 6 3 3 3 2 5 7 7 4 4 8 9 8 8 9 8 8 8 7 5 5 5 5 5 4 3 4 4 4 4 4 4 3 3 3 3 4 4 5 5
2 1 3 5 4 2 2 2 4 5 5 6 7 10 10 10 10 10 9 8 8 7 6 5 5 6 5 4 3 4 4 5 4 3 3 4 4 3 3 3 4 3 4 4
4 4 4 0 1 1 2 3 3 5 6 9 10 10 10 9 9 9 9 8 7 7 6 4 4 5 6 4 4 4 4 4 4 4 4 3 3 3 2 2 2 2 2 2
2 0 1 2 2 2 4 4 5 7 9 10 10 11 10 9 8 8 7 7 7 7 7 5 4 5 5 4 4 5 5 4 4 4 4 4 3 2 2 2 2 2 2 2
2 1 2 2 2 5 6 8 8 8 8 10 11 11 9 9 8 7 7 6 6 7 6 6 5 5 5 5 5 5 4 3 4 4 4 4 3 3 2 1 2 3 3 3
4 5 4 2 2 6 9 8 8 9 8 8 9 10 9 8 7 7 7 7 7 7 7 6 6 5 4 4 5 5 3 3 2 3 3 3 3 3 4 2 2 3 4 4
4 3 4 4 4 6 7 8 8 9 10 10 8 9 8 7 7 7 7 8 8 8 7 7 6 5 5 4 4 4 4 3 2 3 3 2 2 2 1 3 4 3 2 3
4 5 4 3 5 6 8 8 9 9 9 9 9 9 8 7 7 8 8 8 7 8 7 7 6 5 5 4 4 3 3 3 3 3 3 3 3 3 2 2 0 2 2 2
3 4 5 5 6 7 8 9 10 8 8 8 8 9 9 8 8 8 7 7 7 7 7 7 6 5 5 5 4 3 3 2 2 2 3 3 3 3 2 3 2 2 2 3
3 5 6 8 8 8 8 9 9 9 9 8 8 9 9 9 8 7 7 8 8 7 7 6 6 6 5 5 4 3 2 4 3 2 2 2 2 3 3 3 3 3 3 3
5 4 5 7 8 8 8 8 9 10 9 9 10 9 9 8 8 7 7 7 7 7 7 6 6 6 6 6 5 3 2 2 3 2 2 2 3 3 4 4 4 4 4 5
6 6 7 8 8 9 9 9 10 10 10 10 10 10 9 9 9 8 7 7 6 5 6 6 6 6 6 5 5 3 3 2 2 2 2 2 2 3 3 4 4 5 4 4
4 6 6 6 7 8 9 9 10 10 10 10 10 10 9 9 8 8 7 7 7 7 6 7 9 7 6 6 5 3 3 3 2 2 2 3 2 2 3 3 4 4 4 4
4 5 6 6 7 7 8 8 9 10 9 10 10 9 8 8 8 8 8 7 7 6 7 7 7 6 6 6 6 3 3 3 3 3 3 3 3 3 3 4 4 4 4 4
5 5 6 6 6 7 8 9 10 10 9 10 10 10 9 8 8 8 7 6 6 7 7 10 7 5 5 5 5 3 3 3 3 3 4 4 4 4 4 4 4 4 4 4
4 4 5 6 6 5 6 7 9 10 9 9 9 9 9 8 8 7 7 7 7 9 7 6 5 7 8 7 4 4 4 4 4 3 4 4 4 5 5 5 4 4 4 5
3 3 5 6 6 6 6 6 7 9 9 9 9 9 9 8 7 7 6 5 6 10 8 6 8 12 12 6 4 4 4 5 5 4 5 5 5 5 5 5 5 5 5 5
3 3 4 5 5 5 5 5 6 6 7 8 8 9 9 7 5 6 6 9 11 12 8 9 13 15 13 6 5 5 5 5 5 5 5 5 5 5 5 5 5 5 5 6
3 3 4 5 5 4 5 5 5 5 6 5 6 8 7 7 7 7 6 8 12 12 8 10 15 15 10 6 6 6 6 6 6 5 5 5 5 6 6 6 6 6 6 6
2 3 3 4 4 4 4 4 4 4 5 5 5 5 5 5 7 6 6 8 11 12 9 7 8 11 8 8 8 8 7 7 7 6 6 6 6 6 6 7 8 7 6 6
2 2 2 2 2 3 4 4 5 5 6 6 6 6 6 6 6 7 7 7 8 8 8 7 7 8 8 8 8 8 7 7 7 7 6 6 6 6 7 8 7 6 6 6
Wind_Direction
230 259 304 319 327 346 81 167 161 174 169 189 176 164 156 146 142 143 144 141 136 132 129 123 115 112 112 101 89 90 87 77 65 58 58 59 57 56 53 53 57 54 52 43
351 354 18 5 355 9 62 97 130 132 130 152 133 131 143 148 150 152 150 146 142 139 138 136 133 132 122 109 102 101 97 88 80 71 65 63 61 60 59 55 53 55 51 49
330 328 25 12 347 26 58 50 142 161 164 135 136 150 160 159 159 159 155 151 147 145 142 141 142 142 137 130 120 105 100 94 89 81 74 66 71 66 62 58 59 56 50 50
16 25 52 260 31 71 78 50 64 103 127 144 143 138 139 151 155 156 151 147 143 140 137 135 133 134 129 125 116 107 102 99 97 91 84 75 72 68 62 60 62 59 50 47
90 53 299 333 14 44 100 62 66 115 121 120 117 95 86 131 146 149 147 144 142 141 137 133 134 136 125 117 112 109 108 107 104 103 97 86 79 73 67 68 61 56 52 48
113 125 235 291 323 322 107 90 44 122 134 141 135 135 169 152 133 128 128 130 132 130 125 130 139 133 118 111 107 113 119 118 111 110 104 96 89 81 73 78 71 64 54 43
130 163 277 311 323 10 104 223 190 144 150 158 166 163 142 134 126 126 127 128 128 128 131 141 142 128 117 116 121 124 119 113 107 105 107 100 84 76 81 76 67 59 54 38
111 123 262 313 6 70 203 197 135 130 136 132 118 114 120 126 127 128 126 125 128 129 133 137 137 130 123 129 136 119 113 109 106 103 101 95 86 74 76 84 77 60 55 38
162 202 230 308 113 142 137 120 121 128 129 128 125 127 127 128 131 131 132 133 132 133 133 134 140 138 137 145 131 114 109 109 106 93 78 80 88 83 69 73 86 83 78 59
81 32 109 85 85 76 97 106 117 129 133 132 131 134 132 134 135 134 134 137 137 136 135 137 138 136 142 141 126 116 115 114 108 100 85 70 67 70 79 81 98 111 112 99
88 145 76 55 99 107 98 101 102 113 124 132 133 136 138 140 141 140 139 140 142 144 145 147 141 136 140 135 125 118 116 113 112 109 106 88 69 55 81 81 183 155 160 155
196 207 158 186 156 127 120 119 122 123 121 130 136 139 137 141 143 143 144 143 141 143 144 146 142 141 143 141 135 129 121 120 125 126 119 113 106 63 33 45 48 113 149 152
175 162 142 145 130 124 126 129 129 131 137 139 137 138 138 139 143 143 144 147 151 153 151 151 149 152 161 154 141 138 144 153 156 154 152 151 142 130 91 3 19 43 111 152
130 116 112 127 133 130 128 128 124 121 131 137 137 137 137 138 144 148 155 158 153 150 151 154 155 163 172 160 150 151 157 172 173 180 182 184 185 184 178 174 237 313 310 254
151 144 151 139 128 129 130 128 126 128 131 134 139 143 146 148 154 157 158 153 147 149 155 157 160 174 176 160 158 169 171 178 182 183 190 198 200 199 206 208 213 237 282 290
124 121 130 135 141 145 140 140 141 147 147 144 148 152 153 153 153 154 155 153 151 159 165 165 173 184 177 165 164 173 196 206 193 193 201 199 201 207 213 216 223 228 236 243
131 141 145 152 156 157 157 157 155 155 154 153 156 155 149 146 147 152 159 162 163 168 169 171 182 183 175 173 173 185 201 221 216 208 223 218 211 211 212 212 219 229 238 236
172 173 172 170 166 164 163 161 158 156 157 159 155 152 153 156 161 165 166 161 157 165 177 181 182 178 178 180 180 186 194 207 216 226 230 230 226 216 204 210 220 229 245 254
154 153 156 155 156 157 160 161 161 159 156 155 156 159 162 165 167 165 161 159 163 176 196 193 185 180 187 195 185 185 197 215 232 244 237 237 239 233 217 218 228 233 235 233
134 141 143 142 140 144 153 156 156 157 158 157 156 158 162 168 168 166 164 173 186 190 188 182 180 184 192 200 193 190 204 218 226 239 239 233 233 241 240 236 237 239 237 229
133 136 140 143 141 145 153 155 155 159 161 160 163 168 173 175 173 168 167 186 208 191 180 180 181 189 194 197 197 201 214 221 224 229 232 233 238 245 248 250 248 244 235 227
124 132 141 141 137 141 153 156 157 159 160 165 169 168 168 173 176 176 185 192 194 186 180 183 190 198 201 200 198 208 220 225 230 232 233 234 232 236 242 245 245 243 235 229
123 128 136 145 149 152 152 154 159 163 168 172 175 175 176 180 179 178 196 205 185 186 184 190 199 202 205 204 205 214 225 231 234 234 232 230 228 230 235 242 242 241 236 232
126 131 142 144 135 135 153 172 169 173 176 178 181 180 176 177 189 197 192 190 190 188 192 199 202 205 206 207 212 219 226 232 236 239 237 236 235 235 235 236 241 242 239 238
141 138 137 140 149 168 179 174 167 172 175 183 187 187 185 183 186 195 191 190 192 191 199 204 204 206 204 211 216 221 225 229 234 238 239 238 238 238 237 236 237 240 239 238
155 167 173 180 183 184 179 170 175 184 181 187 197 196 194 192 192 190 191 195 194 195 199 200 201 204 208 213 219 224 226 233 239 240 240 241 240 239 239 238 238 236 236 236
178 176 175 186 198 187 179 179 186 194 191 189 197 201 197 196 196 196 195 196 195 198 202 201 199 201 207 214 220 225 227 229 232 235 238 239 241 240 238 238 236 235 233 234